Time,TemperatureF,DewpointF,PressureIn,WindDirection,WindDirectionDegrees,WindSpeedMPH,WindSpeedGustMPH,Humidity,HourlyPrecipIn,Conditions,Clouds,dailyrainin,SolarRadiationWatts/m^2,SoftwareType,DateUTC
2013-01-25 00:00:00,15.0,2.0,-100.00,East,90,5.0,-999.0,56,-99.99,,,-99.99,0.000000,,2013-01-25 05:00:00,
2013-01-25 00:43:00,15.0,2.0,-100.00,East,90,5.0,-999.0,56,-99.99,,,-99.99,0.000000,,2013-01-25 05:43:00,
2013-01-25 00:52:00,15.0,2.0,-100.00,East,90,5.0,-999.0,56,-99.99,,,-99.99,0.000000,,2013-01-25 05:52:00,
2013-01-25 01:00:00,15.0,2.0,-100.00,East,90,5.0,-999.0,57,-99.99,,,-99.99,0.000000,,2013-01-25 06:00:00,
2013-01-25 01:42:00,15.0,2.0,-100.00,East,90,5.0,-999.0,57,-99.99,,,-99.99,0.000000,,2013-01-25 06:42:00,
2013-01-25 01:52:00,15.0,2.0,-100.00,East,90,5.0,-999.0,57,-99.99,,,-99.99,0.000000,,2013-01-25 06:52:00,
2013-01-25 02:00:00,15.0,3.0,-100.00,ENE,67,5.0,-999.0,57,-99.99,,,-99.99,0.000000,,2013-01-25 07:00:00,
2013-01-25 02:42:00,15.0,3.0,-100.00,ENE,67,5.0,-999.0,57,-99.99,,,-99.99,0.000000,,2013-01-25 07:42:00,
2013-01-25 02:52:00,15.0,3.0,-100.00,ENE,67,5.0,-999.0,57,-99.99,,,-99.99,0.000000,,2013-01-25 07:52:00,
2013-01-25 03:00:00,15.0,4.0,-100.00,East,90,5.0,-999.0,59,-99.99,,,-99.99,0.000000,,2013-01-25 08:00:00,
2013-01-25 03:42:00,15.0,4.0,-100.00,East,90,5.0,-999.0,59,-99.99,,,-99.99,0.000000,,2013-01-25 08:42:00,
2013-01-25 03:52:00,15.0,4.0,-100.00,East,90,5.0,-999.0,59,-99.99,,,-99.99,0.000000,,2013-01-25 08:52:00,
2013-01-25 04:00:00,16.0,5.0,-100.00,East,90,6.0,-999.0,61,-99.99,,,-99.99,0.000000,,2013-01-25 09:00:00,
2013-01-25 04:42:00,16.0,5.0,-100.00,East,90,6.0,-999.0,61,-99.99,,,-99.99,0.000000,,2013-01-25 09:42:00,
2013-01-25 04:52:00,16.0,5.0,-100.00,East,90,6.0,-999.0,61,-99.99,,,-99.99,0.000000,,2013-01-25 09:52:00,
2013-01-25 05:00:00,16.0,6.0,-100.00,East,90,7.0,-999.0,65,-99.99,,,-99.99,0.000000,,2013-01-25 10:00:00,
2013-01-25 05:42:00,16.0,6.0,-100.00,East,90,7.0,-999.0,65,-99.99,,,-99.99,0.000000,,2013-01-25 10:42:00,
2013-01-25 05:52:00,16.0,6.0,-100.00,East,90,7.0,-999.0,65,-99.99,,,-99.99,0.000000,,2013-01-25 10:52:00,
2013-01-25 06:00:00,16.0,7.0,-100.00,East,90,7.0,-999.0,68,-99.99,,,-99.99,0.000000,,2013-01-25 11:00:00,
2013-01-25 06:42:00,16.0,7.0,-100.00,East,90,7.0,-999.0,68,-99.99,,,-99.99,0.000000,,2013-01-25 11:42:00,
2013-01-25 06:52:00,16.0,7.0,-100.00,East,90,7.0,-999.0,68,-99.99,,,-99.99,0.000000,,2013-01-25 11:52:00,
2013-01-25 07:00:00,16.0,8.0,-100.00,East,90,6.0,-999.0,69,-99.99,,,-99.99,0.000000,,2013-01-25 12:00:00,
2013-01-25 07:42:00,16.0,8.0,-100.00,East,90,6.0,-999.0,69,-99.99,,,-99.99,0.000000,,2013-01-25 12:42:00,
2013-01-25 07:53:00,16.0,8.0,-100.00,East,90,6.0,-999.0,69,-99.99,,,-99.99,0.000000,,2013-01-25 12:53:00,
2013-01-25 08:00:00,16.0,10.0,-100.00,ESE,112,6.0,-999.0,76,-99.99,,,-99.99,0.000000,,2013-01-25 13:00:00,
2013-01-25 08:43:00,16.0,10.0,-100.00,ESE,112,6.0,-999.0,76,-99.99,,,-99.99,0.000000,,2013-01-25 13:43:00,
2013-01-25 08:53:00,16.0,10.0,-100.00,ESE,112,6.0,-999.0,76,-99.99,,,-99.99,0.000000,,2013-01-25 13:53:00,
2013-01-25 09:00:00,16.0,13.0,-100.00,ESE,112,6.0,-999.0,88,-99.99,,,-99.99,15.080000,,2013-01-25 14:00:00,
2013-01-25 09:42:00,16.0,13.0,-100.00,ESE,112,6.0,-999.0,88,-99.99,,,-99.99,15.080000,,2013-01-25 14:42:00,
2013-01-25 09:53:00,16.0,13.0,-100.00,ESE,112,6.0,-999.0,88,-99.99,,,-99.99,15.080000,,2013-01-25 14:53:00,
2013-01-25 10:00:00,17.0,14.0,-100.00,ESE,112,6.0,-999.0,87,-99.99,,,-99.99,88.160004,,2013-01-25 15:00:00,
2013-01-25 10:43:00,17.0,14.0,-100.00,ESE,112,6.0,-999.0,87,-99.99,,,-99.99,88.160004,,2013-01-25 15:43:00,
2013-01-25 10:53:00,17.0,14.0,-100.00,ESE,112,6.0,-999.0,87,-99.99,,,-99.99,88.160004,,2013-01-25 15:53:00,
2013-01-25 11:00:00,18.0,13.0,-100.00,SE,135,8.0,-999.0,80,-99.99,,,-99.99,193.720001,,2013-01-25 16:00:00,
2013-01-25 11:43:00,18.0,13.0,-100.00,SE,135,8.0,-999.0,80,-99.99,,,-99.99,193.720001,,2013-01-25 16:43:00,
2013-01-25 11:53:00,18.0,13.0,-100.00,SE,135,8.0,-999.0,80,-99.99,,,-99.99,193.720001,,2013-01-25 16:53:00,
2013-01-25 12:00:00,20.0,13.0,-100.00,SE,135,8.0,-999.0,75,-99.99,,,-99.99,247.080002,,2013-01-25 17:00:00,
2013-01-25 12:43:00,20.0,13.0,-100.00,SE,135,8.0,-999.0,75,-99.99,,,-99.99,247.080002,,2013-01-25 17:43:00,
2013-01-25 12:53:00,20.0,13.0,-100.00,SE,135,8.0,-999.0,75,-99.99,,,-99.99,247.080002,,2013-01-25 17:53:00,
2013-01-25 13:00:00,21.0,13.0,-100.00,SSE,157,9.0,-999.0,73,-99.99,,,-99.99,292.320007,,2013-01-25 18:00:00,
2013-01-25 13:43:00,21.0,13.0,-100.00,SSE,157,9.0,-999.0,73,-99.99,,,-99.99,292.320007,,2013-01-25 18:43:00,
2013-01-25 13:52:00,21.0,13.0,-100.00,SSE,157,9.0,-999.0,73,-99.99,,,-99.99,292.320007,,2013-01-25 18:52:00,
2013-01-25 14:00:00,21.0,14.0,-100.00,SSE,157,8.0,-999.0,73,-99.99,,,-99.99,233.160004,,2013-01-25 19:00:00,
2013-01-25 14:42:00,21.0,14.0,-100.00,SSE,157,8.0,-999.0,73,-99.99,,,-99.99,233.160004,,2013-01-25 19:42:00,
2013-01-25 14:53:00,21.0,14.0,-100.00,SSE,157,8.0,-999.0,73,-99.99,,,-99.99,233.160004,,2013-01-25 19:53:00,
2013-01-25 15:00:00,22.0,15.0,-100.00,SSE,157,6.0,-999.0,74,-99.99,,,-99.99,177.479996,,2013-01-25 20:00:00,
2013-01-25 15:43:00,22.0,15.0,-100.00,SSE,157,6.0,-999.0,74,-99.99,,,-99.99,177.479996,,2013-01-25 20:43:00,
2013-01-25 15:53:00,22.0,15.0,-100.00,SSE,157,6.0,-999.0,74,-99.99,,,-99.99,177.479996,,2013-01-25 20:53:00,
2013-01-25 16:00:00,22.0,15.0,-100.00,SSE,157,7.0,-999.0,74,-99.99,,,-99.99,110.199997,,2013-01-25 21:00:00,
2013-01-25 16:43:00,22.0,15.0,-100.00,SSE,157,7.0,-999.0,74,-99.99,,,-99.99,110.199997,,2013-01-25 21:43:00,
2013-01-25 16:52:00,22.0,15.0,-100.00,SSE,157,7.0,-999.0,74,-99.99,,,-99.99,110.199997,,2013-01-25 21:52:00,
2013-01-25 17:00:00,22.0,16.0,-100.00,SSE,157,7.0,-999.0,79,-99.99,,,-99.99,34.799999,,2013-01-25 22:00:00,
2013-01-25 17:42:00,22.0,16.0,-100.00,SSE,157,7.0,-999.0,79,-99.99,,,-99.99,34.799999,,2013-01-25 22:42:00,
2013-01-25 17:53:00,22.0,16.0,-100.00,SSE,157,7.0,-999.0,79,-99.99,,,-99.99,34.799999,,2013-01-25 22:53:00,
2013-01-25 18:00:00,22.0,19.0,-100.00,South,180,6.0,-999.0,87,-99.99,,,-99.99,5.800000,,2013-01-25 23:00:00,
2013-01-25 18:42:00,22.0,19.0,-100.00,South,180,6.0,-999.0,87,-99.99,,,-99.99,5.800000,,2013-01-25 23:42:00,
2013-01-25 18:53:00,22.0,19.0,-100.00,South,180,6.0,-999.0,87,-99.99,,,-99.99,5.800000,,2013-01-25 23:53:00,
2013-01-25 19:00:00,25.0,21.0,-100.00,SW,225,9.0,-999.0,83,-99.99,,,-99.99,0.000000,,2013-01-26 00:00:00,
2013-01-25 19:42:00,25.0,21.0,-100.00,SW,225,9.0,-999.0,83,-99.99,,,-99.99,0.000000,,2013-01-26 00:42:00,
2013-01-25 19:53:00,25.0,21.0,-100.00,SW,225,9.0,-999.0,83,-99.99,,,-99.99,0.000000,,2013-01-26 00:53:00,
2013-01-25 20:00:00,25.0,21.0,-100.00,WSW,247,7.0,-999.0,82,-99.99,,,-99.99,0.000000,,2013-01-26 01:00:00,
2013-01-25 20:42:00,25.0,21.0,-100.00,WSW,247,7.0,-999.0,82,-99.99,,,-99.99,0.000000,,2013-01-26 01:42:00,
2013-01-25 20:52:00,25.0,21.0,-100.00,WSW,247,7.0,-999.0,82,-99.99,,,-99.99,0.000000,,2013-01-26 01:52:00,
2013-01-25 21:00:00,25.0,21.0,-100.00,SW,225,5.0,-999.0,85,-99.99,,,-99.99,0.000000,,2013-01-26 02:00:00,
2013-01-25 21:42:00,25.0,21.0,-100.00,SW,225,5.0,-999.0,85,-99.99,,,-99.99,0.000000,,2013-01-26 02:42:00,
2013-01-25 21:52:00,25.0,21.0,-100.00,SW,225,5.0,-999.0,85,-99.99,,,-99.99,0.000000,,2013-01-26 02:52:00,
2013-01-25 22:00:00,25.0,20.0,-100.00,WSW,247,5.0,-999.0,81,-99.99,,,-99.99,0.000000,,2013-01-26 03:00:00,
2013-01-25 22:43:00,25.0,20.0,-100.00,WSW,247,5.0,-999.0,81,-99.99,,,-99.99,0.000000,,2013-01-26 03:43:00,
2013-01-25 22:52:00,25.0,20.0,-100.00,WSW,247,5.0,-999.0,81,-99.99,,,-99.99,0.000000,,2013-01-26 03:52:00,
2013-01-25 23:00:00,26.0,21.0,-100.00,WNW,292,7.0,-999.0,80,-99.99,,,-99.99,0.000000,,2013-01-26 04:00:00,
2013-01-25 23:32:00,26.0,21.0,-100.00,WNW,292,7.0,-999.0,80,-99.99,,,-99.99,0.000000,,2013-01-26 04:32:00,
2013-01-25 23:43:00,26.0,21.0,-100.00,WNW,292,7.0,-999.0,80,-99.99,,,-99.99,0.000000,,2013-01-26 04:43:00,
2013-01-25 23:52:00,26.0,21.0,-100.00,WNW,292,7.0,-999.0,80,-99.99,,,-99.99,0.000000,,2013-01-26 04:52:00,